Wind_Speed
8 7 2 1 4 2 1 1 3 3 2 3 7 5 6 10 8 4 0 14 24 29 29 29 29 30 28 27 26 24 23 20 18 18 20 19 18 17 15 15 14 13 12 11 11 10 8 7 5
7 4 6 2 4 7 2 2 5 4 7 14 10 7 7 8 18 25 26 9 29 32 32 31 31 32 30 29 28 26 24 23 21 21 20 19 17 16 14 13 12 11 10 10 9 8 7 6 4
4 4 3 3 4 10 3 4 6 6 14 4 7 9 5 5 9 11 15 24 33 37 34 33 33 33 33 31 30 28 26 25 23 22 20 18 16 14 13 11 10 9 9 8 7 6 6 5 3
4 3 3 3 11 1 1 4 5 11 13 3 11 10 9 8 26 16 15 16 36 40 36 34 34 34 34 33 31 29 27 25 24 22 20 17 15 13 12 11 9 9 8 7 6 6 5 4 2
5 3 3 3 4 4 6 3 13 14 13 13 12 11 15 16 35 13 19 17 42 42 38 36 35 36 35 34 32 30 28 26 23 21 19 16 14 13 12 11 10 9 8 7 7 6 5 4 3
4 2 4 9 9 5 9 14 4 6 10 16 15 17 6 23 38 15 10 26 42 43 41 39 38 37 36 35 33 31 29 26 23 20 19 16 14 13 12 11 10 10 9 8 7 7 7 6 5
5 3 8 6 5 8 11 16 9 4 9 6 15 9 13 29 35 20 10 35 43 43 41 40 39 38 38 36 33 31 29 27 24 21 19 17 15 14 13 12 12 11 10 9 8 8 8 7 7
6 3 7 6 10 14 4 6 23 7 14 11 9 8 19 29 31 25 10 34 41 45 42 40 39 39 39 38 35 32 29 27 25 23 20 18 17 16 16 14 14 13 12 11 11 10 11 10 9
6 7 10 11 12 9 4 2 5 11 16 11 8 6 15 24 25 24 11 28 35 42 44 43 41 40 39 38 36 33 30 28 26 24 23 21 21 20 19 17 15 15 14 13 13 13 13 13 12
9 8 14 7 12 9 6 2 5 3 12 19 13 16 19 21 18 19 11 18 30 37 42 43 43 42 40 38 37 34 32 30 29 27 25 24 24 22 20 18 17 16 16 16 15 16 16 16 15
5 10 6 9 8 4 5 4 2 3 16 14 17 22 23 18 18 19 18 10 24 34 36 40 43 42 40 39 38 36 34 33 30 28 26 26 25 23 22 20 19 19 18 18 17 17 18 18 16
6 3 4 11 6 3 5 3 6 11 17 20 17 23 14 14 15 11 14 15 10 19 33 42 41 41 41 40 38 37 36 33 32 29 28 27 26 25 24 20 18 19 18 18 18 18 17 18 18
5 2 5 8 8 7 8 13 11 20 18 24 18 15 17 18 15 15 13 14 12 12 16 33 36 38 39 41 38 37 36 33 32 30 29 28 26 25 24 21 18 18 18 17 17 17 16 16 17
1 4 9 10 11 9 9 18 8 13 10 17 22 20 13 10 10 11 8 14 15 13 12 19 28 33 36 41 40 43 36 38 36 33 31 29 28 26 25 23 19 18 17 16 15 17 16 16 16
1 6 6 13 9 8 7 16 12 1 2 15 39 33 19 12 5 5 5 8 18 18 16 11 14 25 41 35 44 43 40 40 38 35 32 30 28 28 25 26 22 18 17 15 16 17 17 16 15
1 1 5 1 4 2 5 16 2 11 10 7 10 12 10 11 10 5 3 3 8 26 18 14 14 13 20 25 38 44 46 40 38 38 33 29 31 30 24 27 25 20 18 16 17 17 17 16 15
1 2 2 5 6 5 1 6 6 10 15 12 19 13 11 7 6 3 3 5 2 7 30 29 17 13 14 22 29 40 48 46 42 41 30 30 29 33 28 30 26 23 21 17 18 18 18 17 16
1 1 2 4 5 6 12 14 11 24 17 16 15 21 15 11 6 6 2 4 7 6 7 42 31 22 17 15 22 31 38 39 45 45 40 26 22 34 32 28 28 25 21 19 18 17 18 16 16
3 4 6 5 7 7 12 18 18 22 21 21 20 20 21 12 7 4 8 10 11 13 11 7 31 24 24 24 22 24 24 30 39 42 41 34 35 34 36 35 29 26 21 18 17 17 19 17 17
4 5 7 7 6 11 14 20 18 17 17 22 22 20 17 12 10 10 7 9 11 14 16 16 11 10 25 33 24 23 21 22 26 35 39 41 36 34 32 43 32 27 21 20 18 18 19 17 18
5 7 6 9 8 12 12 12 5 8 13 12 15 12 8 13 16 9 10 13 13 16 18 20 20 18 16 17 17 23 22 23 25 26 38 41 34 28 21 51 37 27 20 21 18 18 20 18 19
8 5 6 8 8 8 6 8 10 14 6 5 5 10 13 8 8 14 14 15 14 15 16 19 22 25 23 20 20 19 23 26 27 26 27 35 37 39 39 48 38 25 22 23 20 19 20 19 19
6 1 6 8 12 11 13 7 4 3 6 1 6 9 12 9 10 12 14 18 21 24 22 22 22 25 28 27 24 22 23 27 28 29 30 30 43 41 37 36 32 24 25 23 22 21 21 20 20
3 4 8 4 4 6 5 7 4 4 8 5 10 12 8 9 8 11 16 22 25 27 27 27 27 26 26 31 30 28 27 27 31 31 34 32 34 39 34 28 29 25 26 24 23 22 21 20 20
3 3 6 3 4 4 4 9 11 10 11 15 16 16 13 7 10 14 19 23 27 33 34 33 37 32 28 31 34 33 31 29 32 33 35 39 35 36 38 33 29 26 25 24 24 23 21 20 21
4 4 5 5 4 7 10 9 3 6 12 17 17 11 13 14 17 23 18 18 26 31 32 37 35 35 32 32 34 35 35 32 33 36 39 41 39 36 34 31 26 24 24 24 24 23 20 20 21
4 7 2 7 9 8 7 12 13 15 8 5 6 3 11 15 24 20 22 22 24 25 29 32 32 32 31 33 35 38 39 36 34 36 40 41 39 33 29 31 25 24 23 24 25 21 19 21 21
9 8 4 2 4 6 6 17 12 15 11 5 8 14 17 27 25 19 16 23 29 25 26 32 29 28 28 33 37 38 41 40 37 34 40 43 39 34 31 35 27 25 24 25 24 20 20 22 19
5 7 4 3 4 4 8 6 3 9 13 11 13 12 27 27 24 22 20 24 24 29 36 33 33 31 29 29 35 37 38 41 41 38 40 45 40 35 34 39 28 26 25 26 23 21 21 21 21
8 11 10 6 6 7 11 18 13 16 12 8 16 27 26 21 20 20 23 27 32 30 32 30 35 33 29 29 30 36 37 38 43 43 39 41 39 34 36 36 28 27 27 26 24 20 23 20 19
Wind_Direction
292 288 269 241 256 288 230 159 280 214 265 247 283 240 249 270 223 232 261 214 186 187 181 181 176 172 172 164 160 160 159 162 164 163 159 153 148 146 145 143 142 140 140 135 133 130 126 124 119
316 273 161 174 227 242 236 218 215 250 294 303 285 253 245 261 245 255 271 243 186 187 180 179 176 174 172 167 161 160 161 165 165 165 164 159 156 155 156 155 154 150 149 145 141 136 134 132 125
287 207 197 206 195 234 204 204 175 300 318 281 316 291 277 304 311 273 270 237 195 186 179 178 175 175 175 171 166 165 166 168 168 170 170 169 166 165 166 169 165 164 160 158 150 147 144 140 128
174 161 70 237 225 261 240 199 281 322 324 284 322 286 321 342 341 277 271 243 197 183 181 178 176 174 175 175 171 170 170 172 175 177 177 178 177 176 177 185 183 184 180 176 171 170 168 161 154
181 141 213 237 244 194 182 312 339 324 307 300 333 312 310 344 347 303 274 246 188 182 182 180 180 177 176 177 176 176 177 179 183 184 185 187 189 189 192 199 202 204 205 199 195 192 191 188 190
173 157 217 239 247 207 222 208 286 333 317 309 335 327 336 343 353 344 254 204 187 185 183 183 184 184 181 179 181 182 183 186 189 195 196 197 201 203 208 214 220 220 221 223 220 219 217 212 216
203 200 231 211 265 245 251 188 267 286 304 322 343 316 334 353 355 349 247 192 187 189 186 186 187 188 187 186 189 188 190 192 196 203 207 209 214 218 222 225 233 237 239 242 244 246 245 240 238
200 201 215 224 236 252 218 206 195 265 288 315 343 346 342 346 356 354 277 200 189 191 190 190 191 193 192 192 195 197 197 199 203 208 214 220 224 228 233 236 238 244 249 252 258 258 256 255 255
191 226 232 229 225 241 213 158 213 241 269 286 298 333 328 342 352 353 308 205 199 193 192 193 196 197 197 197 198 203 206 206 209 214 218 223 229 231 234 239 245 250 256 257 263 265 262 262 259
208 233 224 222 238 234 234 314 9 345 291 278 283 300 326 336 344 346 324 221 210 200 197 198 200 203 202 203 204 205 211 213 215 218 221 227 234 237 241 245 248 251 259 263 264 267 265 261 263
195 241 228 221 239 294 268 260 199 192 278 287 302 316 325 339 342 342 351 260 224 214 208 206 205 206 209 208 210 211 213 217 220 223 226 231 237 240 242 246 251 254 258 265 269 270 270 269 269
235 225 255 246 265 272 253 252 253 246 255 278 289 304 320 337 342 333 332 348 269 252 221 215 218 213 213 216 216 219 220 221 224 227 230 235 240 241 246 250 256 262 264 270 270 272 273 271 269
230 196 272 271 270 255 256 251 255 263 271 282 290 298 310 314 314 326 309 289 340 297 262 241 228 228 224 223 222 225 228 231 233 233 235 240 246 249 254 256 261 266 266 268 273 274 276 276 272
194 267 280 281 265 257 260 270 242 267 277 293 290 305 339 322 304 292 293 257 279 311 301 254 241 244 244 238 228 231 228 235 234 235 238 242 247 252 258 261 263 265 265 264 266 270 273 273 272
271 276 261 253 259 247 252 262 251 306 50 255 262 274 282 303 350 320 293 291 229 282 304 289 251 239 236 246 245 237 233 240 240 243 244 248 253 258 262 265 264 261 259 257 260 264 267 270 272
323 248 248 150 319 58 190 255 188 8 3 308 302 311 287 269 300 296 333 279 246 243 273 310 284 265 253 256 252 247 246 239 241 245 249 254 259 256 257 270 265 255 251 253 258 261 262 264 268
78 223 319 310 348 342 218 288 283 321 327 307 310 317 307 312 297 286 279 311 327 226 261 271 294 284 253 246 262 253 247 245 245 247 252 250 262 267 270 264 259 248 247 253 258 258 255 258 261
236 237 234 286 322 308 292 284 290 300 293 280 286 302 293 286 254 284 349 285 285 278 224 241 274 285 279 277 263 260 255 247 242 246 247 246 241 266 262 262 256 245 244 251 261 258 253 250 250
231 237 267 277 292 306 293 292 296 286 272 265 264 269 279 278 259 247 287 289 284 278 266 236 227 260 280 278 283 263 255 255 246 243 244 241 232 248 260 257 250 245 248 256 257 250 247 243 241
214 257 281 284 272 299 293 291 283 276 267 260 254 243 245 256 257 292 294 292 303 297 285 277 271 224 238 253 266 270 270 263 259 250 244 236 238 247 269 275 254 249 249 255 258 251 249 239 234
242 256 285 292 313 287 298 284 239 231 281 253 243 233 262 287 298 303 318 317 313 305 296 280 268 262 254 259 260 264 262 261 261 252 239 238 239 228 255 257 255 249 254 262 257 251 244 240 233
276 217 259 276 298 306 336 287 275 280 297 223 303 311 306 288 296 312 316 320 330 320 309 299 284 269 264 267 270 269 266 258 261 262 253 240 230 243 234 254 245 250 259 262 255 250 245 236 229
260 215 267 272 277 293 260 257 271 209 254 342 296 284 292 289 307 320 326 318 315 316 313 305 299 280 267 266 269 271 267 260 255 259 259 247 239 239 253 245 242 248 256 263 249 245 244 238 228
140 259 271 228 248 247 239 241 198 221 203 242 309 298 305 302 319 322 322 322 319 319 318 310 299 293 274 261 260 261 260 262 257 250 258 258 252 245 244 239 247 246 255 256 246 247 243 236 226
166 284 299 255 208 268 165 284 255 217 233 280 295 294 309 309 316 322 321 321 324 322 316 312 309 289 281 267 254 258 257 255 256 245 248 255 255 249 244 250 250 245 258 250 239 241 240 232 227
218 245 256 278 266 290 287 255 238 212 271 286 284 277 298 315 327 324 318 320 326 325 321 313 301 292 285 269 259 252 254 252 255 241 241 248 248 248 253 244 237 244 255 239 234 234 235 230 222
158 218 330 262 263 273 246 262 270 268 287 306 304 288 306 320 319 314 315 319 326 324 320 315 305 293 284 271 266 256 250 248 250 245 238 243 249 247 246 231 232 247 244 230 230 231 233 220 213
234 147 201 195 258 265 259 277 266 288 298 324 318 325 334 326 319 305 301 315 322 321 312 315 308 295 285 272 264 258 250 244 245 247 239 244 242 244 230 233 231 240 231 224 223 226 220 210 217
195 211 196 243 232 270 296 266 233 278 292 303 314 320 323 319 314 301 295 310 313 314 314 299 310 297 288 278 266 260 253 245 241 242 241 239 244 245 235 233 227 232 224 218 218 220 215 208 218
247 244 221 231 203 234 275 276 272 274 293 305 306 315 316 314 313 301 297 306 312 310 311 296 311 301 291 287 272 260 251 250 242 240 243 235 237 241 228 220 222 224 217 215 216 217 204 210 214
Height
1513 1513 1510 1516 1521 1517 1520 1517 1515 1511 1509 1506 1504 1502 1500 1497 1494 1497 1484 1484 1486 1491 1495 1499 1501 1503 1508 1510 1512 1516 1519 1523 1526 1528 1529 1530 1532 1533 1534 1535 1536 1537 1538 1538 1539 1539 1540 1541 1541
1511 1513 1513 1516 1518 1518 1519 1514 1511 1509 1506 1504 1501 1499 1499 1492 1491 1487 1485 1485 1486 1489 1493 1498 1501 1503 1507 1511 1513 1517 1519 1523 1526 1529 1531 1531 1532 1534 1535 1536 1537 1537 1538 1539 1539 1540 1540 1541 1541
1511 1512 1514 1509 1513 1515 1517 1511 1505 1506 1504 1502 1501 1498 1495 1491 1490 1484 1482 1484 1487 1489 1491 1495 1500 1504 1508 1512 1515 1517 1519 1523 1525 1528 1530 1532 1533 1534 1536 1537 1538 1539 1539 1540 1540 1541 1541 1541 1541
1511 1513 1514 1512 1512 1515 1510 1506 1508 1505 1503 1502 1501 1498 1495 1492 1488 1482 1480 1480 1484 1488 1491 1495 1499 1503 1507 1512 1515 1518 1520 1522 1525 1528 1530 1532 1533 1534 1535 1538 1538 1539 1540 1540 1540 1541 1541 1541 1541
1509 1510 1513 1514 1513 1509 1502 1505 1507 1505 1505 1501 1500 1495 1494 1489 1483 1476 1475 1478 1481 1486 1491 1496 1500 1502 1505 1510 1515 1518 1520 1522 1525 1527 1529 1531 1533 1534 1535 1537 1538 1539 1540 1540 1540 1540 1540 1541 1541
1509 1509 1513 1512 1509 1503 1499 1499 1504 1505 1504 1501 1498 1495 1492 1488 1479 1473 1473 1477 1482 1485 1489 1494 1498 1501 1504 1507 1512 1516 1519 1521 1524 1527 1529 1530 1532 1533 1534 1536 1537 1538 1538 1540 1539 1539 1539 1539 1540
1505 1506 1505 1512 1510 1505 1499 1496 1504 1502 1503 1500 1499 1494 1493 1486 1479 1475 1473 1476 1483 1487 1489 1494 1498 1501 1504 1507 1512 1514 1517 1520 1523 1526 1528 1531 1532 1533 1534 1534 1536 1537 1538 1538 1539 1539 1540 1540 1539
1504 1504 1505 1506 1506 1504 1497 1496 1491 1501 1500 1501 1500 1497 1493 1490 1483 1478 1475 1476 1480 1485 1491 1494 1498 1502 1503 1507 1510 1514 1517 1520 1523 1525 1528 1530 1531 1533 1534 1535 1535 1536 1536 1537 1537 1537 1537 1538 1539
1501 1500 1500 1501 1501 1496 1495 1491 1494 1496 1499 1499 1501 1498 1495 1492 1487 1482 1480 1479 1480 1484 1487 1491 1496 1500 1503 1506 1509 1513 1517 1519 1521 1524 1526 1527 1529 1530 1532 1533 1534 1535 1534 1534 1535 1536 1536 1536 1536
1498 1495 1492 1491 1491 1491 1492 1492 1493 1494 1496 1494 1497 1498 1493 1491 1488 1485 1481 1480 1480 1482 1485 1489 1493 1498 1501 1504 1508 1511 1515 1517 1519 1521 1523 1524 1526 1528 1529 1531 1532 1533 1533 1533 1532 1532 1533 1532 1533
1494 1492 1493 1489 1490 1490 1491 1492 1493 1491 1493 1492 1492 1491 1490 1488 1486 1483 1480 1482 1481 1482 1485 1488 1490 1494 1499 1502 1506 1508 1511 1513 1515 1518 1519 1521 1523 1525 1526 1527 1529 1530 1530 1529 1530 1529 1530 1530 1530
1493 1493 1493 1490 1489 1490 1492 1490 1489 1489 1485 1490 1490 1490 1488 1486 1485 1485 1483 1478 1482 1484 1485 1486 1490 1492 1496 1499 1503 1506 1507 1509 1512 1514 1516 1517 1519 1521 1522 1524 1526 1527 1527 1527 1526 1526 1525 1526 1525
1492 1493 1493 1491 1490 1488 1489 1486 1485 1481 1483 1484 1488 1488 1484 1485 1483 1481 1481 1480 1479 1481 1482 1486 1489 1492 1494 1496 1500 1503 1504 1506 1509 1511 1512 1514 1516 1518 1520 1521 1522 1523 1524 1523 1524 1524 1522 1522 1521
1493 1493 1491 1489 1486 1484 1483 1481 1483 1480 1481 1484 1483 1485 1481 1480 1480 1479 1478 1476 1479 1479 1480 1481 1487 1490 1490 1494 1497 1495 1500 1500 1504 1506 1508 1510 1512 1514 1516 1517 1519 1520 1520 1520 1520 1520 1518 1517 1517
1492 1490 1487 1486 1484 1479 1479 1476 1476 1482 1479 1480 1477 1481 1481 1481 1479 1476 1474 1474 1475 1478 1478 1480 1480 1485 1488 1491 1492 1494 1496 1495 1499 1502 1504 1507 1509 1511 1514 1514 1516 1517 1517 1516 1516 1516 1515 1514 1513
1490 1491 1486 1483 1483 1479 1479 1471 1478 1480 1479 1476 1477 1478 1474 1475 1478 1475 1473 1473 1473 1475 1476 1478 1478 1477 1477 1481 1484 1489 1491 1493 1495 1497 1499 1503 1502 1504 1506 1510 1512 1514 1512 1511 1512 1512 1512 1511 1511
1492 1489 1489 1483 1481 1480 1480 1479 1478 1480 1478 1475 1472 1472 1471 1469 1474 1472 1469 1470 1469 1468 1468 1473 1474 1472 1473 1476 1479 1480 1484 1487 1491 1492 1494 1496 1498 1498 1503 1506 1507 1510 1509 1508 1507 1507 1508 1507 1508
1490 1490 1489 1487 1479 1479 1476 1475 1476 1474 1474 1471 1470 1466 1466 1468 1469 1471 1467 1467 1467 1468 1468 1467 1470 1471 1474 1474 1474 1471 1473 1477 1482 1485 1487 1489 1493 1492 1497 1499 1502 1505 1503 1503 1503 1502 1503 1502 1504
1488 1488 1487 1483 1480 1480 1474 1473 1469 1468 1466 1464 1463 1462 1462 1463 1467 1464 1463 1463 1464 1466 1464 1467 1467 1464 1468 1470 1468 1469 1466 1468 1471 1476 1481 1485 1487 1489 1492 1494 1496 1500 1498 1499 1498 1496 1498 1498 1500
1488 1486 1483 1482 1480 1479 1471 1467 1464 1460 1457 1456 1456 1458 1459 1460 1461 1460 1460 1460 1459 1458 1459 1459 1458 1456 1465 1470 1470 1462 1461 1460 1464 1468 1474 1477 1480 1486 1491 1494 1492 1494 1493 1494 1493 1493 1494 1493 1495
1483 1484 1483 1483 1479 1476 1472 1456 1457 1453 1452 1452 1452 1452 1452 1451 1451 1451 1452 1453 1451 1451 1453 1453 1452 1455 1459 1462 1456 1454 1452 1454 1457 1459 1462 1467 1475 1476 1482 1481 1491 1489 1487 1488 1489 1488 1489 1488 1491
1483 1481 1481 1482 1482 1478 1475 1463 1452 1448 1447 1449 1449 1448 1448 1449 1449 1448 1447 1447 1444 1446 1447 1445 1443 1444 1446 1447 1445 1444 1445 1446 1452 1455 1458 1463 1465 1467 1469 1476 1484 1482 1482 1482 1483 1484 1486 1484 1486
1479 1480 1480 1480 1479 1479 1469 1473 1447 1447 1445 1445 1446 1448 1448 1448 1447 1445 1444 1444 1444 1443 1440 1438 1436 1434 1433 1433 1434 1436 1436 1440 1444 1447 1451 1453 1459 1461 1465 1470 1473 1473 1475 1477 1478 1479 1481 1481 1482
1479 1479 1477 1481 1478 1473 1464 1465 1443 1441 1439 1442 1442 1443 1446 1446 1446 1446 1446 1444 1441 1439 1435 1433 1430 1429 1428 1428 1428 1430 1431 1434 1437 1437 1442 1444 1449 1455 1459 1462 1463 1465 1467 1470 1472 1475 1475 1476 1478
1477 1478 1476 1473 1467 1459 1464 1462 1443 1440 1439 1439 1438 1439 1443 1444 1444 1443 1441 1438 1433 1430 1428 1428 1426 1423 1421 1420 1419 1423 1426 1427 1429 1431 1433 1436 1439 1443 1449 1452 1456 1459 1462 1463 1465 1468 1471 1472 1474
1474 1476 1479 1482 1467 1456 1456 1451 1432 1435 1438 1439 1438 1439 1439 1439 1437 1436 1435 1431 1428 1425 1423 1420 1416 1412 1411 1412 1410 1413 1418 1418 1421 1422 1426 1428 1431 1435 1442 1445 1449 1452 1455 1457 1459 1463 1466 1469 1471
1475 1476 1477 1474 1470 1472 1450 1435 1433 1429 1432 1432 1433 1435 1435 1436 1435 1431 1426 1427 1425 1421 1416 1411 1404 1401 1400 1398 1399 1401 1406 1408 1412 1415 1415 1420 1423 1426 1433 1440 1442 1445 1448 1451 1455 1458 1460 1463 1467
1469 1472 1476 1480 1477 1467 1442 1437 1430 1427 1427 1429 1429 1429 1429 1428 1427 1426 1424 1420 1413 1411 1408 1401 1397 1395 1394 1394 1394 1394 1395 1399 1401 1405 1405 1411 1414 1419 1426 1434 1433 1438 1441 1445 1449 1453 1455 1459 1463
1468 1468 1472 1473 1472 1462 1450 1425 1424 1425 1425 1427 1427 1425 1424 1423 1421 1418 1417 1414 1411 1405 1400 1395 1392 1387 1386 1385 1383 1383 1386 1388 1392 1393 1398 1400 1407 1413 1418 1425 1427 1432 1435 1440 1443 1448 1451 1455 1458
1462 1461 1462 1464 1460 1461 1457 1421 1420 1422 1424 1425 1424 1422 1419 1417 1415 1413 1410 1407 1403 1399 1391 1383 1380 1376 1375 1372 1372 1372 1374 1377 1379 1383 1388 1392 1397 1403 1410 1417 1420 1425 1429 1434 1438 1442 1447 1451 1454